Regional Weather Roundup
Issued by NWS

Current Version | Previous Version | Text Only | Print | Product List | Glossary Off
Versions: 1 2 3 4 5 6 7 8 9 10 11 12 13 14 15 16 17 18 19 20 21 22 23 24 25 26 27 28 29 30 31 32 33 34 35 36 37 38 39 40 41 42 43 44 45 46 47 48 49 50

579
ASUS43 KLMK 141210
RWRKY
KENTUCKY REGIONAL WEATHER ROUNDUP
NATIONAL WEATHER SERVICE LOUISVILLE KY
700 AM EST SUN FEB 14 2016

NOTE "FAIR" INDICATES FEW OR NO CLOUDS BELOW 12,000 FEET
WITH NO SIGNIFICANT WEATHER AND/OR OBSTRUCTIONS TO VISIBILITY.

KYZ001>023-026-027-061>063-070>075-141300-
WESTERN AND SOUTH CENTRAL KENTUCKY

CITY           SKY/WX    TMP DP  RH WIND       PRES   REMARKS
PADUCAH        CLOUDY    25  11  55 E14       30.31F WCI  13
HENDERSON      CLOUDY    19  16  86 E9        30.38F WCI   9
OWENSBORO      LGT SNOW  21  16  81 SE8       30.42S WCI  11
HOPKINSVILLE   CLOUDY    26   9  47 NE8       30.36S WCI  18
BOWLING GREEN  LGT SNOW  24  11  57 E9        30.41R WCI  14
GLASGOW        CLOUDY    23  10  56 E9        30.39R WCI  13
$$

KYZ024-025-028>034-038-045-046-053-141300-
NORTH CENTRAL KENTUCKY

CITY           SKY/WX    TMP DP  RH WIND       PRES   REMARKS
LOUISVILLE/SDF CLOUDY    20   4  50 E9        30.44S WCI   9
LOUISVILLE/LOU CLOUDY    20   5  52 E7        30.45F WCI  11
FORT KNOX      FLURRIES  19   7  60 E5        30.40R WCI  12
$$

KYZ035>037-039>044-047>052-055>060-089>105-141300-
NORTHEAST KENTUCKY

CITY           SKY/WX    TMP DP  RH WIND       PRES   REMARKS
LEXINGTON      CLOUDY    17   4  56 E7        30.43R WCI   8
COVINGTON      NOT AVBL
FRANKFORT      CLOUDY    18   3  52 E8        30.43R WCI   8
$$

KYZ054-064>069-076>088-106>120-141300-
SOUTHEAST KENTUCKY

CITY           SKY/WX    TMP DP  RH WIND       PRES   REMARKS
JACKSON        CLOUDY    13   2  61 VRB5      30.39F WCI   5
LONDON         CLOUDY    18   4  54 E5        30.40R WCI  11
SOMERSET       CLOUDY    19   5  53 E5        30.43R WCI  13
MIDDLESBORO    CLOUDY    18   7  61 CALM      30.40S
MONTICELLO     CLOUDY    20   8  60 VRB3      30.40S
$$





USA.gov is the U.S. government's official web portal to all federal, state and local government web resources and services.